Regional Weather Roundup
Issued by NWS

Home | Current Version | Previous Version | Graphics & Text | Print | Product List | Glossary On
Versions: 1 2 3 4 5 6 7 8 9 10 11 12 13 14 15 16 17 18 19 20 21 22 23 24 25 26 27 28 29 30 31 32 33 34 35 36 37
000
ASUS45 KBOU 230307
RWRCO

WEATHER ROUNDUP FOR COLORADO
NATIONAL WEATHER SERVICE DENVER/BOULDER CO
900 PM MDT WED OCT 22 2014

NOTE: "FAIR" INDICATES FEW OR NO CLOUDS BELOW 12000 FEET WITH NO
SIGNIFICANT WEATHER AND/OR OBSTRUCTIONS TO VISIBILITY.

COZ001>005-013-030-031-230400-
...NORTHWEST COLORADO...

CITY           SKY/WX    TMP DP  RH WIND       PRES   REMARKS
CRAIG          PTCLDY    39  34  82 CALM      30.24R
HAYDEN         PTCLDY    43  34  70 CALM      30.24R
MEEKER         CLEAR     42  37  82 NE7       30.23S
MOUNT WERNER   NOT AVBL
STEAMBOAT SPGS PTCLDY    42  32  66 E3        30.25R
WALDEN         PTCLDY    36  28  75 E7        30.28S
$$

COZ006>008-011-230400-
...WEST CENTRAL VALLEYS...

CITY           SKY/WX    TMP DP  RH WIND       PRES   REMARKS
GRAND JUNCTION CLEAR     50  36  58 E3        30.15R
MONTROSE       CLEAR     50  41  71 SE7       30.23R
EAGLE          MOCLDY    46  45  93 CALM      30.28S
RIFLE          CLEAR     48  40  73 CALM      30.21R
DELTA          CLEAR     54  36  50 NE8       30.19R
NUCLA          NOT AVBL
$$

COZ017>023-064>068-230400-
...SOUTHWEST COLORADO...

CITY           SKY/WX    TMP DP  RH WIND       PRES   REMARKS
DURANGO        CLEAR     51  37  58 SW3       30.24R
CORTEZ         CLEAR     47  36  65 NE9       30.22R
PAGOSA SPRINGS CLEAR     44  38  79 CALM      30.30R
TELLURIDE      MOCLDY    45  34  65 SE6       30.37S
WOLF CREEK PAS PTCLDY    32  32 100 SW16        N/A  WCI  21
$$

COZ009-010-012-014-032>034-037-058>063-230400-
...CENTRAL COLORADO...

CITY           SKY/WX    TMP DP  RH WIND       PRES   REMARKS
ASPEN          PTCLDY    37  34  89 SW5       30.30S
BUENA VISTA    PTCLDY    44  33  65 CALM      30.29R
COPPER MTN     PTCLDY    34  27  75 SW8       30.46R WCI  27
BERTHOUD PASS  FOG       28  25  86 W26G36    30.44S VSB 3/4 WCI  13
COTTONWOOD PAS CLOUDY    45  32  61 NW5       30.37S
GUNNISON       PTCLDY    48  32  53 CALM      30.31R
KREMMLING      PTCLDY    41  34  75 CALM        N/A
LEADVILLE      MOCLDY    34  28  79 NE7       30.37R WCI  28
MONARCH PASS   MOCLDY    32  32 100 W22       30.55R WCI  19
SALIDA         CLOUDY    48  37  65 CALM      30.35R
SUNLIGHT       PTCLDY    36  32  87 CALM      30.42F
WILKERSON PASS NOT AVBL
$$

COZ069>075-230400-
...SAN LUIS VALLEY/SANGRE DE CRISTO MOUNTAINS...

CITY           SKY/WX    TMP DP  RH WIND       PRES   REMARKS
ALAMOSA        PTCLDY    45  34  65 NW6       30.26R
LA VETA PASS   PTCLDY    43  30  61 SW5       30.38R
SAGUACHE       CLOUDY    48  34  57 N8        30.29S
$$

COZ035-036-038>040-230400-
...NORTHERN COLORADO FRONT RANGE...

CITY           SKY/WX    TMP DP  RH WIND       PRES   REMARKS
DENVER INTL AP PTCLDY    50  41  71 S8        30.14S
DMNS CITY PARK   N/A     56  40  55 S3        30.14R
AURORA         PTCLDY    50  42  72 S7        30.16S
FRONT RANGE AP NOT AVBL
ERIE MUNI ARPT PTCLDY    60  32  34 W9        30.13S
BOULDER MUN AP PTCLDY    57  34  41 SW7       30.14R
CENTENNIAL     MOCLDY    52  42  69 S5        30.17R
BROOMFIELD     PTCLDY    55  32  41 CALM      30.16R
FORT COLLINS   PTCLDY    52  37  58 E12       30.14R
LONGMONT       PTCLDY    52  37  56 W3        30.14S
$$

COZ041-046-047-076>085-087-088-230400-
...PIKES PEAK/PALMER DIVIDE AND SOUTHERN FOOTHILLS...

CITY           SKY/WX    TMP DP  RH WIND       PRES   REMARKS
COLO. SPRINGS  MOCLDY    54  40  59 NE8       30.20R
A. F. ACADEMY  PTCLDY    48  41  77 NE3       30.21R
ELLICOTT       PTCLDY    51  42  71 E12       30.18R
FALCON         PTCLDY    47  40  77 NW5       30.23R
FORT CARSON    MOCLDY    53  41  65 VRB1      30.17R
LIMON          MOCLDY    47  45  93 CALM      30.16R
MONUMENT HILL  PTCLDY    48  36  61 SW8       30.22R
TRINIDAD       CLOUDY    59  40  49 SE9       30.15R
$$

COZ042>045-048>051-090-091-230400-
...NORTHEAST COLORADO...

CITY           SKY/WX    TMP DP  RH WIND       PRES   REMARKS
GREELEY ARPT   PTCLDY    52  36  54 NE9       30.13R
AKRON          PTCLDY    50  35  56 E7        30.12R
BURLINGTON     PTCLDY    52  40  63 SE3       30.12R
WRAY           CLEAR     49  33  54 CALM      30.10R
STERLING       PTCLDY    52  39  62 NE3       30.11R
HOLYOKE        PTCLDY    50  36  57 CALM      30.10S
FORT MORGAN    MOCLDY    50  36  57 NE8       30.13R
$$

COZ086-089-092>099-230400-
...SOUTHEAST COLORADO...

CITY           SKY/WX    TMP DP  RH WIND       PRES   REMARKS
PUEBLO         MOCLDY    64  42  44 SE8       30.11R
LA JUNTA       PTCLDY    60  46  59 SE8       30.10R
LAMAR          CLEAR     54  45  71 E3        30.07R
SPRINGFIELD      N/A     55  44  66 NE6       30.10R
$$



USA.gov is the U.S. government's official web portal to all federal, state and local government web resources and services.